| time (UTC) | temp C | wind direction | speed KPH | gust KPH | rain 1hr cm | rain 24hr cm | rain mn cm | humidity % | barometer mb |
| 20260503184813 | 17 | 269 | 8.0 | 19.3 | 0.00 | 0.00 | 0.00 | 36 | 1013.2 |
| 20260503184313 | 17 | 238 | 6.4 | 19.3 | 0.00 | 0.00 | 0.00 | 36 | 1013.4 |
| 20260503183815 | 17 | 261 | 4.8 | 19.3 | 0.00 | 0.00 | 0.00 | 38 | 1013.3 |
| 20260503183809 | 17 | 182 | 4.8 | 14.5 | 0.00 | 0.00 | 0.00 | 39 | 1013.5 |
| 20260503182815 | 17 | 239 | 4.8 | 17.7 | 0.00 | 0.00 | 0.00 | 41 | 1013.6 |
| 20260503182312 | 16 | 241 | 6.4 | 19.3 | 0.00 | 0.00 | 0.00 | 42 | 1013.7 |
| 20260503181811 | 16 | 231 | 6.4 | 19.3 | 0.00 | 0.00 | 0.00 | 38 | 1013.7 |
| 20260503181312 | 17 | 258 | 4.8 | 12.9 | 0.00 | 0.00 | 0.00 | 40 | 1013.7 |
| 20260503181028 | 17 | 152 | 4.8 | 14.5 | 0.00 | 0.00 | 0.00 | 40 | 1013.7 |
| 20260503180309 | 17 | 311 | 4.8 | 16.1 | 0.00 | 0.00 | 0.00 | 40 | 1013.8 |
| 20260503175809 | 17 | 97 | 6.4 | 16.1 | 0.00 | 0.00 | 0.00 | 41 | 1013.9 |
| 20260503175309 | 17 | 230 | 6.4 | 22.5 | 0.00 | 0.00 | 0.00 | 41 | 1013.8 |
| 20260503175252 | 17 | 221 | 4.8 | 22.5 | 0.00 | 0.00 | 0.00 | 38 | 1013.9 |
| 20260503174310 | 17 | 229 | 4.8 | 11.3 | 0.00 | 0.00 | 0.00 | 40 | 1014.0 |
| 20260503173805 | 16 | 250 | 6.4 | 19.3 | 0.00 | 0.00 | 0.00 | 37 | 1014.1 |
| 20260503173305 | 16 | 247 | 8.0 | 19.3 | 0.00 | 0.00 | 0.00 | 39 | 1014.1 |
| 20260503172804 | 16 | 275 | 6.4 | 20.9 | 0.00 | 0.00 | 0.00 | 39 | 1014.3 |
| 20260503172305 | 16 | 152 | 6.4 | 20.9 | 0.00 | 0.00 | 0.00 | 39 | 1014.3 |
| 20260503171805 | 16 | 217 | 6.4 | 24.1 | 0.00 | 0.00 | 0.00 | 39 | 1014.3 |
| 20260503171303 | 16 | 170 | 6.4 | 24.1 | 0.00 | 0.00 | 0.00 | 40 | 1014.5 |
| 20260503170759 | 16 | 238 | 6.4 | 16.1 | 0.00 | 0.00 | 0.00 | 40 | 1014.5 |
| 20260503170259 | 16 | 151 | 4.8 | 17.7 | 0.00 | 0.00 | 0.00 | 40 | 1014.7 |
| 20260503150659 | 14 | 132 | 3.2 | 14.5 | 0.00 | 0.00 | 0.00 | 48 | 1016.2 |
| 20260503150159 | 14 | 203 | 1.6 | 8.0 | 0.00 | 0.00 | 0.00 | 52 | 1016.2 |
| 20260503131321 | 6 | 258 | 1.6 | 4.8 | 0.00 | 0.00 | 0.00 | 79 | 1016.4 |
| 20260503130814 | 5 | 215 | 1.6 | 9.7 | 0.00 | 0.00 | 0.00 | 81 | 1016.3 |
| 20260503110330 | 1 | 230 | 3.2 | 8.0 | 0.00 | 0.00 | 0.00 | 90 | 1015.7 |
| 20260503100217 | 1 | 227 | 3.2 | 4.8 | 0.00 | 0.00 | 0.00 | 89 | 1015.1 |
| 20260503081139 | 1 | 218 | 3.2 | 3.2 | 0.00 | 0.00 | 0.00 | 87 | 1015.1 |
| 20260503080640 | 1 | 218 | 3.2 | 3.2 | 0.00 | 0.00 | 0.00 | 87 | 1015.1 |
| 20260503080358 | 1 | 218 | 3.2 | 3.2 | 0.00 | 0.00 | 0.00 | 87 | 1015.1 |
| 20260503072635 | 2 | 218 | 3.2 | 3.2 | 0.00 | 0.00 | 0.00 | 85 | 1014.9 |
| 20260503072134 | 2 | 218 | 3.2 | 3.2 | 0.00 | 0.00 | 0.00 | 85 | 1014.9 |
| 20260503071636 | 2 | 218 | 3.2 | 3.2 | 0.00 | 0.00 | 0.00 | 84 | 1015.0 |
| 20260503071136 | 2 | 218 | 3.2 | 3.2 | 0.00 | 0.00 | 0.00 | 83 | 1015.1 |
| 20260503070637 | 2 | 218 | 1.6 | 3.2 | 0.00 | 0.00 | 0.00 | 82 | 1015.0 |
| 20260503070134 | 2 | 218 | 1.6 | 3.2 | 0.00 | 0.00 | 0.00 | 82 | 1015.0 |
| 20260503060122 | 3 | 218 | 1.6 | 1.6 | 0.00 | 0.00 | 0.00 | 79 | 1015.5 |
| 20260503055121 | 3 | 218 | 1.6 | 1.6 | 0.00 | 0.00 | 0.00 | 80 | 1015.5 |
| 20260503054836 | 3 | 218 | 1.6 | 1.6 | 0.00 | 0.00 | 0.00 | 81 | 1015.6 |
| 20260503054121 | 3 | 218 | 1.6 | 1.6 | 0.00 | 0.00 | 0.00 | 81 | 1015.5 |
| 20260503053618 | 3 | 218 | 1.6 | 1.6 | 0.00 | 0.00 | 0.00 | 81 | 1015.6 |
| 20260503053117 | 3 | 218 | 1.6 | 1.6 | 0.00 | 0.00 | 0.00 | 81 | 1015.5 |
| 20260503052833 | 3 | 218 | 1.6 | 1.6 | 0.00 | 0.00 | 0.00 | 80 | 1015.5 |
| 20260503052114 | 3 | 218 | 1.6 | 1.6 | 0.00 | 0.00 | 0.00 | 80 | 1015.3 |
| 20260503051615 | 3 | 218 | 1.6 | 1.6 | 0.00 | 0.00 | 0.00 | 80 | 1015.3 |
| 20260503051114 | 3 | 218 | 1.6 | 1.6 | 0.00 | 0.00 | 0.00 | 79 | 1015.3 |
| 20260503050611 | 3 | 218 | 1.6 | 1.6 | 0.00 | 0.00 | 0.00 | 78 | 1015.5 |
| 20260503050110 | 3 | 218 | 1.6 | 3.2 | 0.00 | 0.00 | 0.00 | 78 | 1015.5 |
| 20260503045829 | 3 | 218 | 1.6 | 3.2 | 0.00 | 0.00 | 0.00 | 77 | 1015.5 |
| 20260503045108 | 3 | 218 | 1.6 | 3.2 | 0.00 | 0.00 | 0.00 | 76 | 1015.5 |
| 20260503044829 | 3 | 218 | 1.6 | 3.2 | 0.00 | 0.00 | 0.00 | 75 | 1015.5 |
| 20260503044105 | 4 | 218 | 1.6 | 1.6 | 0.00 | 0.00 | 0.00 | 74 | 1015.5 |
| 20260503043603 | 4 | 218 | 1.6 | 1.6 | 0.00 | 0.00 | 0.00 | 73 | 1015.5 |
| 20260503043105 | 4 | 9 | 1.6 | 1.6 | 0.00 | 0.00 | 0.00 | 73 | 1015.5 |
| 20260503042602 | 4 | 9 | 1.6 | 1.6 | 0.00 | 0.00 | 0.00 | 73 | 1015.5 |
| 20260503042556 | 4 | 9 | 0.0 | 1.6 | 0.00 | 0.00 | 0.00 | 73 | 1015.3 |
| 20260503041556 | 5 | 9 | 1.6 | 1.6 | 0.00 | 0.00 | 0.00 | 71 | 1015.3 |
| 20260503041051 | 5 | 9 | 1.6 | 1.6 | 0.00 | 0.00 | 0.00 | 70 | 1015.3 |
| 20260503040545 | 5 | 10 | 0.0 | 1.6 | 0.00 | 0.00 | 0.00 | 69 | 1015.3 |
| 20260503040039 | 5 | 9 | 0.0 | 1.6 | 0.00 | 0.00 | 0.00 | 69 | 1015.5 |
| 20260503035533 | 5 | 9 | 0.0 | 1.6 | 0.00 | 0.00 | 0.00 | 68 | 1015.5 |
| 20260503035027 | 5 | 9 | 0.0 | 1.6 | 0.00 | 0.00 | 0.00 | 68 | 1015.5 |
| 20260503034745 | 5 | 9 | 0.0 | 0.0 | 0.00 | 0.00 | 0.00 | 67 | 1015.6 |
| 20260503034015 | 5 | 10 | 0.0 | 1.6 | 0.00 | 0.00 | 0.00 | 66 | 1015.6 |
| 20260503033509 | 5 | 9 | 0.0 | 1.6 | 0.00 | 0.00 | 0.00 | 66 | 1015.6 |
| 20260503033003 | 5 | 9 | 0.0 | 0.0 | 0.00 | 0.00 | 0.00 | 65 | 1015.6 |
| 20260503032457 | 5 | 9 | 0.0 | 0.0 | 0.00 | 0.00 | 0.00 | 65 | 1015.6 |
| 20260503031950 | 5 | 9 | 0.0 | 0.0 | 0.00 | 0.00 | 0.00 | 65 | 1015.6 |
| 20260503031444 | 5 | 9 | 0.0 | 0.0 | 0.00 | 0.00 | 0.00 | 65 | 1015.6 |
| 20260503030939 | 5 | 9 | 0.0 | 0.0 | 0.00 | 0.00 | 0.00 | 66 | 1015.6 |
| 20260503030432 | 5 | 9 | 0.0 | 0.0 | 0.00 | 0.00 | 0.00 | 67 | 1015.6 |
| 20260503025926 | 5 | 10 | 0.0 | 0.0 | 0.00 | 0.00 | 0.00 | 67 | 1015.6 |
| 20260503025421 | 5 | 9 | 0.0 | 0.0 | 0.00 | 0.00 | 0.00 | 66 | 1015.6 |
| 20260503024915 | 5 | 9 | 0.0 | 0.0 | 0.00 | 0.00 | 0.00 | 66 | 1015.6 |
| 20260503024409 | 5 | 9 | 0.0 | 0.0 | 0.00 | 0.00 | 0.00 | 66 | 1015.6 |
| 20260503023903 | 5 | 9 | 0.0 | 0.0 | 0.00 | 0.00 | 0.00 | 65 | 1015.5 |
| 20260503023357 | 5 | 9 | 0.0 | 0.0 | 0.00 | 0.00 | 0.00 | 65 | 1015.5 |
| 20260503022853 | 6 | 9 | 0.0 | 0.0 | 0.00 | 0.00 | 0.00 | 66 | 1015.5 |
| 20260503022345 | 6 | 9 | 0.0 | 0.0 | 0.00 | 0.00 | 0.00 | 66 | 1015.5 |
| 20260503021839 | 6 | 9 | 0.0 | 1.6 | 0.00 | 0.00 | 0.00 | 66 | 1015.5 |
| 20260503021333 | 6 | 9 | 0.0 | 1.6 | 0.00 | 0.00 | 0.00 | 64 | 1015.5 |
| 20260503020827 | 7 | 9 | 1.6 | 1.6 | 0.00 | 0.00 | 0.00 | 61 | 1015.3 |
| 20260503020321 | 7 | 9 | 1.6 | 1.6 | 0.00 | 0.00 | 0.00 | 60 | 1015.2 |
| 20260503015814 | 7 | 9 | 1.6 | 1.6 | 0.00 | 0.00 | 0.00 | 60 | 1015.2 |
| 20260503015309 | 7 | 9 | 1.6 | 1.6 | 0.00 | 0.00 | 0.00 | 60 | 1015.1 |
| 20260503014803 | 7 | 9 | 1.6 | 3.2 | 0.00 | 0.00 | 0.00 | 59 | 1015.1 |
| 20260503014257 | 7 | 9 | 1.6 | 3.2 | 0.00 | 0.00 | 0.00 | 59 | 1015.0 |
| 20260503014014 | 7 | 9 | 3.2 | 3.2 | 0.00 | 0.00 | 0.00 | 59 | 1015.1 |
| 20260503013245 | 7 | 9 | 3.2 | 3.2 | 0.00 | 0.00 | 0.00 | 59 | 1015.0 |
| 20260503012739 | 7 | 9 | 3.2 | 3.2 | 0.00 | 0.00 | 0.00 | 59 | 1014.9 |
| 20260503012233 | 7 | 10 | 3.2 | 3.2 | 0.00 | 0.00 | 0.00 | 59 | 1014.9 |
| 20260503011727 | 7 | 10 | 1.6 | 3.2 | 0.00 | 0.00 | 0.00 | 58 | 1014.8 |
| 20260503011220 | 7 | 10 | 1.6 | 3.2 | 0.00 | 0.00 | 0.00 | 59 | 1014.8 |
| 20260503010714 | 7 | 9 | 1.6 | 3.2 | 0.00 | 0.00 | 0.00 | 58 | 1014.7 |
| 20260503010209 | 7 | 9 | 1.6 | 1.6 | 0.00 | 0.00 | 0.00 | 58 | 1014.7 |
| 20260503010147 | 7 | 9 | 1.6 | 1.6 | 0.00 | 0.00 | 0.00 | 58 | 1014.6 |
| 20260503005418 | 8 | 9 | 1.6 | 1.6 | 0.00 | 0.00 | 0.00 | 58 | 1014.6 |
| 20260503004650 | 8 | 10 | 1.6 | 3.2 | 0.00 | 0.00 | 0.00 | 57 | 1014.6 |
| 20260503004144 | 8 | 9 | 1.6 | 3.2 | 0.00 | 0.00 | 0.00 | 57 | 1014.6 |
| 20260503003639 | 8 | 9 | 3.2 | 3.2 | 0.00 | 0.00 | 0.00 | 56 | 1014.5 |
| 20260503003357 | 8 | 10 | 3.2 | 4.8 | 0.00 | 0.00 | 0.00 | 57 | 1014.5 |
| 20260503002900 | 8 | 17 | 3.2 | 6.4 | 0.00 | 0.00 | 0.00 | 56 | 1014.5 |
| 20260503002135 | 8 | 13 | 3.2 | 6.4 | 0.00 | 0.00 | 0.00 | 55 | 1014.4 |
| 20260503001632 | 8 | 12 | 3.2 | 6.4 | 0.00 | 0.00 | 0.00 | 55 | 1014.3 |
| 20260503001131 | 8 | 3 | 3.2 | 6.4 | 0.00 | 0.00 | 0.00 | 54 | 1014.3 |
| 20260503000628 | 8 | 3 | 3.2 | 6.4 | 0.00 | 0.00 | 0.00 | 54 | 1014.2 |
| 20260503000345 | 9 | 11 | 3.2 | 6.4 | 0.00 | 0.00 | 0.00 | 54 | 1014.2 |
| 20260502235626 | 9 | 8 | 3.2 | 8.0 | 0.00 | 0.00 | 0.00 | 55 | 1014.2 |
| 20260502235129 | 9 | 358 | 4.8 | 12.9 | 0.00 | 0.00 | 0.00 | 52 | 1014.2 |
| 20260502234853 | 9 | 0 | 4.8 | 12.9 | 0.00 | 0.00 | 0.00 | 51 | 1014.1 |
| 20260502234127 | 9 | 15 | 4.8 | 8.0 | 0.00 | 0.00 | 0.00 | 50 | 1014.1 |
| 20260502233853 | 10 | 20 | 6.4 | 9.7 | 0.00 | 0.00 | 0.00 | 49 | 1014.0 |
| 20260502233359 | 10 | 351 | 4.8 | 14.5 | 0.00 | 0.00 | 0.00 | 50 | 1014.1 |
| 20260502232627 | 10 | 18 | 4.8 | 14.5 | 0.00 | 0.00 | 0.00 | 48 | 1014.0 |
| 20260502232611 | 10 | 33 | 4.8 | 12.9 | 0.00 | 0.00 | 0.00 | 49 | 1014.1 |
| 20260502231626 | 10 | 344 | 4.8 | 11.3 | 0.00 | 0.00 | 0.00 | 49 | 1014.1 |
| 20260502231126 | 10 | 43 | 4.8 | 14.5 | 0.00 | 0.00 | 0.00 | 50 | 1014.0 |
| 20260502230627 | 10 | 11 | 4.8 | 14.5 | 0.00 | 0.00 | 0.00 | 48 | 1014.0 |
| 20260502230121 | 10 | 8 | 3.2 | 9.7 | 0.00 | 0.00 | 0.00 | 49 | 1013.9 |
| 20260502225614 | 10 | 349 | 3.2 | 9.7 | 0.00 | 0.00 | 0.00 | 50 | 1013.9 |
| 20260502225109 | 11 | 332 | 4.8 | 12.9 | 0.00 | 0.00 | 0.00 | 48 | 1013.9 |
| 20260502224603 | 11 | 10 | 4.8 | 12.9 | 0.00 | 0.00 | 0.00 | 48 | 1013.9 |
| 20260502224057 | 10 | 10 | 4.8 | 9.7 | 0.00 | 0.00 | 0.00 | 47 | 1013.8 |
| 20260502223551 | 10 | 7 | 4.8 | 9.7 | 0.00 | 0.00 | 0.00 | 48 | 1013.8 |
| 20260502223312 | 10 | 337 | 4.8 | 11.3 | 0.00 | 0.00 | 0.00 | 47 | 1013.8 |
| 20260502222540 | 10 | 325 | 6.4 | 16.1 | 0.00 | 0.00 | 0.00 | 46 | 1013.8 |
| 20260502222032 | 10 | 358 | 6.4 | 16.1 | 0.00 | 0.00 | 0.00 | 46 | 1013.9 |
| 20260502221527 | 10 | 43 | 4.8 | 12.9 | 0.00 | 0.00 | 0.00 | 47 | 1013.7 |
| 20260502221244 | 10 | 36 | 4.8 | 11.3 | 0.00 | 0.00 | 0.00 | 47 | 1013.8 |
| 20260502220515 | 10 | 335 | 6.4 | 11.3 | 0.00 | 0.00 | 0.00 | 46 | 1013.7 |
| 20260502220010 | 11 | 17 | 6.4 | 11.3 | 0.00 | 0.00 | 0.00 | 46 | 1013.7 |
| 20260502215503 | 10 | 339 | 6.4 | 11.3 | 0.00 | 0.00 | 0.00 | 47 | 1013.7 |
| 20260502215440 | 10 | 10 | 6.4 | 9.7 | 0.00 | 0.00 | 0.00 | 47 | 1013.7 |
| 20260502214450 | 10 | 33 | 6.4 | 17.7 | 0.00 | 0.00 | 0.00 | 47 | 1013.6 |
| 20260502213945 | 10 | 285 | 4.8 | 17.7 | 0.00 | 0.00 | 0.00 | 46 | 1013.6 |
| 20260502213438 | 10 | 10 | 4.8 | 17.7 | 0.00 | 0.00 | 0.00 | 47 | 1013.6 |
| 20260502212933 | 11 | 334 | 4.8 | 17.7 | 0.00 | 0.00 | 0.00 | 46 | 1013.7 |
| 20260502212427 | 11 | 348 | 4.8 | 16.1 | 0.00 | 0.00 | 0.00 | 46 | 1013.5 |
| 20260502211921 | 11 | 349 | 3.2 | 16.1 | 0.00 | 0.00 | 0.00 | 46 | 1013.5 |
| 20260502211643 | 11 | 12 | 3.2 | 6.4 | 0.00 | 0.00 | 0.00 | 49 | 1013.4 |
| 20260502210924 | 10 | 17 | 3.2 | 9.7 | 0.00 | 0.00 | 0.00 | 47 | 1013.4 |
| 20260502210421 | 11 | 23 | 4.8 | 9.7 | 0.00 | 0.00 | 0.00 | 47 | 1013.5 |
| 20260502210146 | 11 | 342 | 4.8 | 11.3 | 0.00 | 0.00 | 0.00 | 46 | 1013.4 |
| 20260502205423 | 11 | 350 | 6.4 | 16.1 | 0.00 | 0.00 | 0.00 | 44 | 1013.4 |
| 20260502204921 | 11 | 24 | 6.4 | 16.1 | 0.00 | 0.00 | 0.00 | 45 | 1013.4 |
| 20260502204422 | 11 | 6 | 6.4 | 12.9 | 0.00 | 0.00 | 0.00 | 45 | 1013.4 |
| 20260502203921 | 11 | 26 | 4.8 | 12.9 | 0.00 | 0.00 | 0.00 | 46 | 1013.4 |
| 20260502203422 | 12 | 10 | 4.8 | 11.3 | 0.00 | 0.00 | 0.00 | 44 | 1013.5 |
| 20260502202921 | 12 | 1 | 4.8 | 11.3 | 0.00 | 0.00 | 0.00 | 46 | 1013.5 |
| 20260502202421 | 12 | 12 | 4.8 | 11.3 | 0.00 | 0.00 | 0.00 | 43 | 1013.4 |
| 20260502201923 | 11 | 14 | 3.2 | 9.7 | 0.00 | 0.00 | 0.00 | 45 | 1013.6 |
| 20260502201421 | 11 | 243 | 6.4 | 17.7 | 0.00 | 0.00 | 0.00 | 45 | 1013.6 |
| 20260502200921 | 11 | 337 | 4.8 | 17.7 | 0.00 | 0.00 | 0.00 | 44 | 1013.7 |
| 20260502200422 | 11 | 341 | 3.2 | 17.7 | 0.00 | 0.00 | 0.00 | 47 | 1013.7 |
| 20260502195923 | 10 | 3 | 4.8 | 11.3 | 0.00 | 0.00 | 0.00 | 46 | 1013.7 |
| 20260502195421 | 11 | 1 | 8.0 | 17.7 | 0.00 | 0.00 | 0.00 | 44 | 1013.7 |
| 20260502195143 | 11 | 0 | 8.0 | 17.7 | 0.00 | 0.00 | 0.00 | 43 | 1013.9 |
| 20260502194421 | 12 | 48 | 4.8 | 17.7 | 0.00 | 0.00 | 0.00 | 42 | 1013.8 |
| 20260502193921 | 12 | 347 | 4.8 | 14.5 | 0.00 | 0.00 | 0.00 | 45 | 1013.8 |
| 20260502193423 | 12 | 15 | 6.4 | 14.5 | 0.00 | 0.00 | 0.00 | 45 | 1013.7 |
| 20260502192923 | 11 | 301 | 6.4 | 12.9 | 0.00 | 0.00 | 0.00 | 44 | 1013.8 |
| 20260502192418 | 11 | 343 | 4.8 | 9.7 | 0.00 | 0.00 | 0.00 | 44 | 1013.8 |
| 20260502192139 | 12 | 26 | 4.8 | 12.9 | 0.00 | 0.00 | 0.00 | 45 | 1013.8 |
| 20260502191417 | 11 | 333 | 6.4 | 12.9 | 0.00 | 0.00 | 0.00 | 46 | 1013.9 |
| 20260502190918 | 11 | 343 | 6.4 | 17.7 | 0.00 | 0.00 | 0.00 | 44 | 1013.9 |
| 20260502190643 | 11 | 291 | 8.0 | 17.7 | 0.00 | 0.00 | 0.00 | 43 | 1014.0 |
| 20260502185919 | 11 | 344 | 8.0 | 17.7 | 0.00 | 0.00 | 0.00 | 44 | 1014.1 |
| 20260502185419 | 12 | 29 | 6.4 | 14.5 | 0.00 | 0.00 | 0.00 | 45 | 1014.0 |